Powrót do katalogu

ONEWEB-0499

AktywnyŁącznośćPO
NORAD 54117·PAYLOAD·🇬🇧 United Kingdom

Wystrzelony Oct 22, 2022 z Satish Dhawan Space Centre

Loading…

Następne Przeloty (najbliższe 24 godziny)

TLE

ŚwieżeSource: CelesTrak SupGP

Epoka: Sep 14, 2026, 14:53 UTC

1 54117C 22138E   26257.62062500 -.00000812  00000+0 -20305-2 0  2578
2 54117  87.9114 287.1545 0002088  88.4837  21.0236 13.19727610    10

Śledź ONEWEB-0499 w czasie rzeczywistym z AllMySat

Download on the App Store